ALOUETTE 1 (S-27) 1 00424U 62049A 12037.55090028 .00000055 00000-0 53614-4 0 8401 2 00424 080.4627 042.2257 0024478 081.6101 278.7817 13.68805728463622 IUE 1 10637U 78012A 12036.37417932 -.00000243 00000-0 10000-3 0 7658 2 10637 043.8109 002.6043 1489235 171.9269 190.8414 01.00056287 77095 IRAS 1 13777U 83004A 12037.52780964 -.00000107 00000-0 -42701-4 0 7800 2 13777 099.0281 235.3114 0020041 060.9479 299.3692 14.00136142152546 EXOS D (AKEBONO) 1 19822U 89016A 12036.65038953 .00028660 48841-6 82995-3 0 919 2 19822 075.0915 155.5785 2536250 286.6902 047.2626 10.34165561692942 INTERCOSMOS 24 1 20261U 89080A 12037.01493446 .00000265 00000-0 80176-4 0 6772 2 20261 082.5923 196.9557 1212160 286.0348 061.0773 12.53843242 20345 COBE 1 20322U 89089A 12037.48527037 -.00000183 00000-0 -86937-4 0 6844 2 20322 099.0033 046.1335 0008386 324.8138 035.2469 14.04475074138525 HST 1 20580U 90037B 12036.06260360 .00001506 00000-0 99186-4 0 9381 2 20580 028.4708 294.4865 0003299 082.7422 277.3608 15.02161937994697 ROSAT (Decayed 2011-10-23) 1 20638U 90049A 11295.95477602 +.11801250 +12635-4 +14055-3 0 05914 2 20638 052.9649 145.0450 0003875 266.7349 093.8309 16.49742883194609 CRRES 1 20712U 90065A 12035.56774594 -.00000107 +00000-0 +66143-3 0 04009 2 20712 018.1330 030.1603 7130337 091.9317 343.6176 02.43401255180495 SARA 1 21578U 91050E 12036.92347749 .00000486 00000-0 13368-3 0 3531 2 21578 098.3542 008.7184 0003446 094.0122 266.1464 14.51158195 84145 UARS (Decayed 2011-09-24) 1 21701U 91063B 11267.10904230 .15227068 11945-4 11522-3 0 6442 2 21701 056.9313 262.1789 0003645 318.1436 041.9334 16.52554649109189 SAMPEX 1 22012U 92038A 12037.18294164 .00031235 00000-0 39783-3 0 7644 2 22012 081.6339 276.4059 0030048 097.2931 263.1731 15.58602263 83134 ORBVIEW 1 (MICROLAB) 1 23547U 95017C 12037.23600390 .00000381 00000-0 10052-3 0 7912 2 23547 069.9777 091.2458 0013020 311.7114 048.2903 14.56279666892918 XTE 1 23757U 95074A 12036.96629969 .00004467 00000-0 11988-3 0 5725 2 23757 022.9917 349.9602 0007421 210.5025 149.5050 15.33195110893461 FAST 1 24285U 96049A 12037.46858010 .00004057 00000-0 34792-3 0 3947 2 24285 082.9716 292.4152 1974108 127.9868 251.6575 11.31683846627267 TRACE 1 25280U 98020A 12037.19782051 .00001840 00000-0 14843-3 0 1170 2 25280 097.6077 242.6751 0024765 231.8540 128.0454 15.00878433755504 SAFIR 2 1 25399U 98043F 12037.03182301 -.00000019 00000-0 94662-5 0 1336 2 25399 098.3192 029.5461 0001063 217.8112 142.3013 14.24065392705520 SWAS 1 25560U 98071A 12037.20082733 .00001191 00000-0 13872-3 0 8008 2 25560 069.9010 125.2640 0011693 247.2273 112.7662 14.88018114713699 ASTRID 2 1 25568U 98072B 12036.90063353 .00000064 00000-0 53700-4 0 9037 2 25568 082.9480 349.7704 0023311 261.2782 098.5727 13.72108631658819 ORSTED 1 25635U 99008B 12037.04168065 .00000390 00000-0 10371-3 0 4273 2 25635 096.4544 015.1046 0142845 005.7395 354.5386 14.46245484683020 SUNSAT 1 25636U 99008C 12036.97170889 .00000209 00000-0 61412-4 0 1282 2 25636 096.4614 005.3960 0149035 050.2047 311.2160 14.43699476682145 WIRE (Decayed 2011-05-10) 1 25646U 99011A 11130.21694826 .32787649 27057-5 24659-3 0 6096 2 25646 097.2373 069.0355 0009444 231.5077 128.8522 16.52763843683505 ABRIXAS 1 25721U 99022A 12037.20082144 .00004495 00000-0 19246-3 0 3297 2 25721 048.4626 110.7605 0018091 292.7487 067.1538 15.24482245707244 TERRIERS 1 25735U 99026A 12037.17814850 .00002382 00000-0 93743-4 0 5109 2 25735 097.1039 242.4879 0005337 239.3173 120.7540 15.26543188705762 FUSE 1 1 25791U 99035A 12036.77471589 .00000340 00000-0 47779-4 0 1784 2 25791 024.9843 180.2548 0010349 318.4176 041.5548 14.41983905665616 CXO 1 25867U 99040B 12036.70833333 -.00000570 00000-0 00000+0 0 6980 2 25867 071.3037 014.6261 8739544 277.8126 359.9667 00.37803937 8658 CLEMENTINE 1 25978U 99064B 12037.35432207 .00001385 00000-0 16055-3 0 5171 2 25978 098.1090 145.9399 0009410 223.7793 136.2670 14.87113047659097 XMM 1 25989U 99066A 12036.25000000 +.00000153 +00000-0 +10000-3 0 01458 2 25989 062.7565 081.6261 6662663 098.3052 352.8003 00.50134283011067 TERRA 1 25994U 99068A 12037.43630979 .00000188 00000-0 51690-4 0 6983 2 25994 098.2068 113.3878 0000955 081.8701 278.2600 14.57091085645571 ACRIMSAT 1 26033U 99070B 12037.55382533 .00000169 00000-0 43493-4 0 4668 2 26033 097.8464 252.4163 0029551 044.0924 316.2629 14.60855184646324 IMAGE 1 26113U 00017A 12036.23606538 .00000132 00000-0 10000-3 0 1853 2 26113 093.1391 223.5377 7649675 174.3189 207.3854 01.68633924 73064 DELTA 2 R/B(2) 1 26115U 00017C 12035.73193863 .00000795 00000-0 18564-1 0 845 2 26115 093.1536 223.5971 7652488 175.8414 199.4858 01.68191703 72866 CLUSTER II-FM6 1 26410U 00041A 12035.83333333 +.00002471 +00000-0 +00000-0 0 07585 2 26410 140.6833 277.3217 8552591 095.3924 353.9350 00.44225791008837 CLUSTER II-FM7 1 26411U 00041B 12035.83333333 +.00002472 +00000-0 +00000-0 0 07587 2 26411 140.6865 277.3034 8552769 095.3802 353.9433 00.44225872008913 CLUSTER II-FM5 1 26463U 00045A 12035.83333333 +.00002558 +00000-0 +00000-0 0 07482 2 26463 142.9475 272.8423 8454873 091.4187 353.9233 00.44226870009417 CLUSTER II-FM8 1 26464U 00045B 12038.12500000 .00003777 00000-0 00000+0 0 7343 2 26464 141.5796 268.9000 8888511 088.3737 357.0898 00.44221324 8816 MEGSAT 1 1 26546U 00057B 12036.72212995 .00001018 00000-0 13432-3 0 4984 2 26546 064.5597 323.2628 0034881 311.0309 048.7787 14.85329912615218 HETE 2 1 26561U 00061A 12037.09105548 .00002291 00000-0 12087-3 0 7243 2 26561 001.9495 287.9408 0022858 219.2736 140.6109 14.97870099619756 MUNIN 1 26621U 00075C 12037.51439230 .00000898 00000-0 81581-3 0 3040 2 26621 095.4221 312.8172 0717888 075.3236 292.6299 13.03843654533367 ODIN 1 26702U 01007A 12037.14950120 .00001751 00000-0 15524-3 0 5417 2 26702 097.6602 054.8430 0005121 111.2103 248.9672 14.97466244597591 TIMED 1 26998U 01055B 12036.84157475 .00000578 00000-0 72413-4 0 1003 2 26998 074.0719 243.6036 0000874 127.2344 232.8891 14.84789436550490 HESSI 1 27370U 02004A 12037.01508156 .00002503 00000-0 17843-3 0 7730 2 27370 038.0391 255.5066 0015260 249.7747 110.1373 15.05382494548800 USERS (SERVICE MODULE) (Decayed 2007-06-15) 1 27515U 02042A 07165.28398148 .02788115 -47478-5 58034-3 0 6437 2 27515 030.3988 006.1610 0004722 351.8108 358.0490 16.29812123266589 INTEGRAL 1 27540U 02048A 12035.20833333 +.00000547 +00000-0 +10000-3 0 01237 2 27540 070.5746 297.7008 8913820 249.9896 357.4716 00.33415941007516 FEDSAT 1 27598U 02056B 12037.15265173 .00000068 00000-0 43541-4 0 5932 2 27598 098.2645 058.1213 0008180 270.5657 089.4584 14.28131915476826 WEOS 1 27599U 02056C 12035.90889648 +.00000027 +00000-0 +26925-4 0 05913 2 27599 098.2730 065.1772 0009175 284.0104 076.0062 14.28725724476822 MICRO LABSAT 1 27600U 02056D 12037.13698963 .00000041 00000-0 32302-4 0 5621 2 27600 098.2656 065.6457 0010093 282.7891 077.2162 14.29000487477105 CORIOLIS 1 27640U 03001A 12036.96252908 -.00000071 00000-0 -13351-4 0 7902 2 27640 098.7559 045.3318 0014379 166.9216 193.2321 14.18483691470280 CHIPSAT 1 27643U 03002B 12036.69257920 .00001875 00000-0 15628-3 0 9580 2 27643 094.0191 085.2680 0008912 259.2699 100.7523 14.98925644495175 SORCE 1 27651U 03004A 12037.41257943 .00000865 00000-0 11893-3 0 7145 2 27651 039.9976 032.0890 0026460 214.3644 145.5423 14.83287871489420 GALEX 1 27783U 03017A 12037.36721136 .00000555 00000-0 91692-4 0 4227 2 27783 028.9981 149.9995 0004397 208.8276 151.2064 14.60234103468807 MOST 1 27843U 03031D 12037.03378170 .00000033 00000-0 36160-4 0 3117 2 27843 098.7177 046.0240 0009111 256.3611 103.6544 14.20218911445989 QUAKESAT 1 27845U 03031F 12037.07743284 .00000246 00000-0 13449-3 0 3294 2 27845 098.7145 047.1255 0008239 266.1201 093.9031 14.20668053446000 AAU CUBESAT 1 27846U 03031G 12037.00785549 .00000154 00000-0 90855-4 0 2034 2 27846 098.6961 047.8355 0008454 218.3754 141.6822 14.21235505446232 SCISAT 1 1 27858U 03036A 12036.59579890 .00000292 00000-0 48337-4 0 5411 2 27858 073.9360 087.6229 0009819 278.9302 081.0770 14.75239483456758 KAISTSAT 4 1 27945U 03042G 12036.72727362 .00000220 00000-0 51110-4 0 4805 2 27945 097.8213 245.0418 0012097 339.1762 020.8974 14.63427571446489 DOUBLESTAR (TC-1) (Decayed 2007-10-14) 1 28140U 03061A 07287.06978781 +.01244379 -22592-5 +10000-3 0 01751 2 28140 018.8616 210.3539 4780782 049.3666 343.3587 06.28920458006227 GP-B 1 28230U 04014A 12035.86651106 +.00000463 +00000-0 +64414-4 0 03437 2 28230 089.9206 150.1212 0002363 061.7258 298.4199 14.76464752419783 DEMETER 1 28368U 04025C 12037.39541954 .00000494 00000-0 87633-4 0 5861 2 28368 097.8822 093.5417 0002284 087.1979 272.9490 14.71332828407420 DOUBLESTAR (TC-2) 1 28382U 04029A 12037.06922725 .00000101 00000-0 65531-3 0 91 2 28382 088.7684 325.8273 7262582 111.7752 335.5733 02.15596163 58169 SWIFT 1 28485U 04047A 12037.34930799 .00002090 00000-0 15199-3 0 821 2 28485 020.5572 052.1442 0013879 150.3751 209.7461 14.94331370393951 ASTRO E2 1 28773U 05025A 12035.98052812 +.00002030 +00000-0 +14177-3 0 07081 2 28773 031.4065 284.8628 0007207 305.9658 054.0313 15.03039264361029 ASTRO F (AKARI) 1 28939U 06005A 12036.89785572 .00005572 00000-0 32274-3 0 8039 2 28939 098.2524 053.1124 0183756 352.7373 007.1193 14.99486791316828 FORMOSAT 3A 1 29047U 06011A 12036.77415555 .00000004 00000-0 18257-4 0 7204 2 29047 071.9771 219.7257 0052912 285.5956 073.9315 14.27385709305202 FORMOSAT 3B 1 29048U 06011B 12036.71845983 .00000392 00000-0 17471-3 0 8039 2 29048 071.9704 134.1638 0046649 239.3376 120.3151 14.27403602307676 FORMOSAT 3C 1 29049U 06011C 12036.72757518 .00000363 00000-0 16364-3 0 7461 2 29049 072.0218 288.5992 0036840 291.1487 068.5698 14.27415953303450 FORMOSAT 3D 1 29050U 06011D 12037.52769296 .00001124 00000-0 26646-3 0 630 2 29050 072.0166 016.5543 0051717 105.0933 255.5900 14.55104635311449 FORMOSAT 3E 1 29051U 06011E 12036.83219366 .00000375 00000-0 16522-3 0 8011 2 29051 072.0043 195.7572 0069758 164.4802 195.8474 14.27412553306057 FORMOSAT 3F 1 29052U 06011F 12036.72778968 .00000362 00000-0 16273-3 0 8220 2 29052 072.0357 261.0986 0042694 259.6724 099.9579 14.27452182304344 CLOUDSAT 1 29107U 06016A 12035.39991884 +.00000260 +00000-0 +65619-4 0 08228 2 29107 098.2209 340.4309 0007649 159.9182 200.2305 14.58788048307022 CALIPSO 1 29108U 06016B 12036.56404390 .00000548 00000-0 13171-3 0 8471 2 29108 098.2205 341.1632 0000981 089.7935 270.3368 14.57071277307142 HINODE (SOLAR B) 1 29479U 06041A 12036.54680232 .00000352 00000-0 77144-4 0 6943 2 29479 098.1086 038.2432 0014493 248.5943 111.3691 14.63414101286848 SJ-6C 1 29505U 06046A 12037.45487477 .00000386 00000-0 44189-4 0 9106 2 29505 097.7162 035.6564 0004372 102.8877 257.2808 14.91327078287756 SJ-6D 1 29506U 06046B 12037.48259163 .00001019 00000-0 10977-3 0 8895 2 29506 097.7242 034.3423 0002687 141.3427 218.7992 14.90573275287625 COROT 1 29678U 06063A 12035.84632239 +.00000245 +00000-0 +16421-3 0 06945 2 29678 090.0065 010.1173 0006270 033.0629 327.0938 13.98248499260620 AIM 1 31304U 07015A 12037.32607152 .00003282 00000-0 30592-3 0 6054 2 31304 097.8252 146.0958 0009685 260.7036 099.3086 14.94921067260647 GLAST 1 33053U 08029A 12036.85265026 .00000280 00000-0 00000+0 0 9785 2 33053 025.5855 326.1571 0013705 029.3736 330.7536 15.05998081201249 KORONAS-FOTON 1 33504U 09003A 12037.50257691 .00001131 00000-0 73642-4 0 3384 2 33504 082.4770 004.7068 0016762 037.7152 073.1394 15.06894108165817 TATIANA 2 1 35868U 09049D 12037.51233098 .00000066 00000-0 49445-4 0 1631 2 35868 098.6730 094.5644 0005075 064.7331 295.4373 14.22232361123913 UGATUSAT 1 35869U 09049E 12037.38587556 .00000006 00000-0 22429-4 0 1264 2 35869 098.6710 094.0892 0005420 076.3353 283.8428 14.22053013123882 SUMBANDILA 1 35870U 09049F 12037.47497743 .00003298 00000-0 14432-3 0 6562 2 35870 097.2515 077.8393 0000653 318.1735 158.9991 15.22719403132566 WISE 1 36119U 09071A 12037.52918835 .00002056 00000-0 11417-3 0 6235 2 36119 097.5170 043.5121 0002987 349.1787 010.9380 15.14847246118555 SDO 1 36395U 10005A 12037.37519828 -.00000058 00000-0 00000+0 0 4378 2 36395 027.8467 176.4722 0001628 310.4915 042.2102 01.00270144 7468 CRYOSAT 2 1 36508U 10013A 12037.09453710 .00000003 00000-0 00000+0 0 5649 2 36508 092.0262 088.7416 0010678 151.8975 208.2825 14.52178100 97010 PICARD 1 36598U 10028A 12037.51028254 .00000138 00000-0 47241-4 0 7860 2 36598 098.2868 224.4072 0001569 184.4283 175.6903 14.49581319 87041